This is the latest recevied weather packets stored in our database for station/object DK4MDA-13. If no packets are shown the sender has not sent any weather packets the latest 10 day(s).
| Time | Temp. | Humidity | Pressure | Rain* | Wind** | Luminosity | Snow |
|---|---|---|---|---|---|---|---|
| 1777888931 | 19.44° C | 66% | 1013.3 hPa | 0 mm | - | - | - |
| 1777888631 | 18.89° C | 64% | 1013.3 hPa | 0 mm | - | - | - |
| 1777888331 | 18.89° C | 66% | 1013.4 hPa | 0 mm | - | - | - |
| 1777888031 | 18.89° C | 65% | 1013.6 hPa | 0 mm | - | - | - |
| 1777887731 | 18.89° C | 65% | 1013.5 hPa | 0 mm | - | - | - |
| 1777887431 | 18.89° C | 65% | 1013.5 hPa | 0 mm | - | - | - |
| 1777887131 | 18.89° C | 64% | 1013.5 hPa | 0 mm | - | - | - |
| 1777886831 | 18.89° C | 63% | 1013.6 hPa | 0 mm | - | - | - |
| 1777886531 | 19.44° C | 63% | 1013.5 hPa | 0 mm | - | - | - |
| 1777886231 | 20° C | 62% | 1013.5 hPa | 0 mm | - | - | - |
| 1777885931 | 20° C | 64% | 1013.5 hPa | 0 mm | - | - | - |
| 1777885631 | 20° C | 62% | 1013.5 hPa | 0 mm | - | - | - |
| 1777885331 | 19.44° C | 63% | 1013.5 hPa | 0 mm | - | - | - |
| 1777885031 | 19.44° C | 64% | 1013.5 hPa | 0 mm | - | - | - |
| 1777884731 | 19.44° C | 63% | 1013.5 hPa | 0 mm | - | - | - |
| 1777884431 | 19.44° C | 65% | 1013.4 hPa | 0 mm | - | - | - |
| 1777884132 | 18.89° C | 65% | 1013.4 hPa | 0 mm | - | - | - |
| 1777883830 | 18.89° C | 65% | 1013.5 hPa | 0 mm | - | - | - |
| 1777883530 | 18.89° C | 65% | 1013.4 hPa | 0 mm | - | - | - |
| 1777883230 | 18.33° C | 66% | 1013.4 hPa | 0 mm | - | - | - |
| 1777882931 | 18.33° C | 66% | 1013.6 hPa | 0 mm | - | - | - |
| 1777882630 | 18.33° C | 66% | 1013.3 hPa | 0 mm | - | - | - |
| 1777882331 | 18.33° C | 67% | 1013.2 hPa | 0 mm | - | - | - |
| 1777882030 | 18.33° C | 67% | 1013.3 hPa | 0 mm | - | - | - |
| 1777881730 | 17.78° C | 67% | 1013.4 hPa | 0 mm | - | - | - |
* Rain latest hour (hover to see other rain measurements)
** Current wind speed in m/s (hover to see current wind gust speed)